Weather History for Ionia, MI

Change the Weather History Date:

Monday, December 23, 2013

  Actual Average (KGRR) Record (KGRR)
Temperature  
Mean Temperature 21 °F 27 °F  
Max Temperature 25 °F 33 °F 57 °F (1982)
Min Temperature 17 °F 21 °F -11 °F (1989)
Degree Days  
Heating Degree Days 44 38  
Month to date heating degree days 800  
Since 1 July heating degree days 2138  
Cooling Degree Days 0 0  
Month to date cooling degree days 0  
Year to date cooling degree days 699  
Moisture  
Dew Point 21 °F    
Average Humidity 92    
Maximum Humidity 100    
Minimum Humidity 79    
Precipitation  
Precipitation 0.00 in 0.08 in 1.02 in (1932)
Month to date precipitation 1.90  
Year to date precipitation 37.67  
Snow  
Snow 0.00 in 0.80 in 5.90 in (2008)
Month to date snowfall 15.6  
Since 1 July snowfall 22.9  
Snow Depth -    
Sea Level Pressure  
Sea Level Pressure 30.17 in    
Wind  
Wind Speed 5 mph (West)    
Max Wind Speed 16 mph    
Max Gust Speed 22 mph    
Visibility 8 miles    
Events Snow    
T = Trace of Precipitation, MM = Missing Value Source: NWS Daily Summary

Daily Weather History Graph

Daily Weather History Graph

Search for Another Location

Airport:

Trip Planner

Search our weather history database for the weather conditions in past years. The results will help you decide how hot, cold, wet, or windy it might be!

Date:

Astronomy

Dec. 23, 2013 Rise Set
Actual Time 8:09 AM EST 5:09 PM EST
Civil Twilight 7:36 AM EST 5:42 PM EST
Nautical Twilight 7:00 AM EST 6:18 PM EST
Astronomical Twilight 6:26 AM EST 6:52 PM EST
Moon 11:27 PM EST (12/23) 11:26 AM EST (12/23)
Length of Visible Light 10h 05m
Length of Day
9h 00m
Waning Gibbous, 68% of the Moon is Illuminated
Dec 23
Waning Gibbous
Dec 25
Last Quarter
Jan 1
New
Jan 7
First Quarter
Jan 15
Full

Hourly Weather History & Observations

Time (EST) Temp. Windchill Dew Point Humidity Pressure Visibility Wind Dir Wind Speed Gust Speed Precip Events Conditions
12:14 AM 25.3 °F - 24.8 °F 98% 29.98 in 10.0 mi Calm Calm - N/A   Overcast
12:34 AM 25.3 °F - 24.8 °F 98% 29.98 in 10.0 mi Calm Calm - N/A   Overcast
12:54 AM 25.5 °F - 25.2 °F 99% 29.98 in 10.0 mi Calm Calm - N/A   Overcast
1:14 AM 25.3 °F - 24.8 °F 98% 29.99 in 10.0 mi Calm Calm - N/A   Overcast
1:34 AM 25.5 °F 21.3 °F 24.8 °F 97% 29.99 in 10.0 mi North 3.5 mph - N/A   Overcast
1:54 AM 25.5 °F 21.3 °F 24.8 °F 97% 30.00 in 10.0 mi NNW 3.5 mph - N/A   Overcast
2:14 AM 25.3 °F - 24.8 °F 98% 30.01 in 7.0 mi Calm Calm - N/A   Overcast
2:34 AM 25.3 °F 21.1 °F 24.8 °F 98% 30.02 in 10.0 mi NW 3.5 mph - N/A   Overcast
2:49 AM 25.3 °F 21.1 °F 24.8 °F 98% 30.02 in 7.0 mi NW 3.5 mph - N/A   Overcast
3:17 AM 24.8 °F 19.1 °F 24.8 °F 100% 30.04 in 10.0 mi WNW 4.6 mph - N/A   Overcast
3:36 AM 24.8 °F 20.5 °F 24.8 °F 100% 30.05 in 10.0 mi WNW 3.5 mph - N/A   Overcast
3:56 AM 24.8 °F 20.5 °F 23.0 °F 93% 30.05 in 10.0 mi WNW 3.5 mph - N/A   Overcast
4:16 AM 24.8 °F 20.5 °F 23.0 °F 93% 30.05 in 10.0 mi West 3.5 mph - N/A   Overcast
4:42 AM 23.0 °F 15.8 °F 23.0 °F 100% 30.06 in 10.0 mi West 5.8 mph - N/A   Overcast
4:56 AM 23.0 °F 17.0 °F 23.0 °F 100% 30.06 in 10.0 mi West 4.6 mph - N/A   Overcast
5:16 AM 23.0 °F 14.7 °F 23.0 °F 100% 30.06 in 10.0 mi West 6.9 mph - N/A   Overcast
5:37 AM 23.0 °F 14.7 °F 21.2 °F 93% 30.07 in 10.0 mi West 6.9 mph - N/A   Overcast
5:57 AM 23.0 °F 17.0 °F 21.2 °F 93% 30.08 in 10.0 mi West 4.6 mph - N/A   Overcast
6:17 AM 23.0 °F 15.8 °F 21.2 °F 93% 30.08 in 10.0 mi West 5.8 mph - N/A   Overcast
6:36 AM 23.0 °F 17.0 °F 21.2 °F 93% 30.08 in 10.0 mi West 4.6 mph - N/A   Mostly Cloudy
6:57 AM 21.2 °F 14.9 °F 19.4 °F 93% 30.09 in 10.0 mi West 4.6 mph - N/A   Mostly Cloudy
7:17 AM 21.2 °F 13.6 °F 19.4 °F 93% 30.11 in 10.0 mi WSW 5.8 mph - N/A   Overcast
7:37 AM 21.2 °F 14.9 °F 19.4 °F 93% 30.12 in 10.0 mi West 4.6 mph - N/A   Overcast
7:57 AM 21.2 °F 14.9 °F 21.2 °F 100% 30.14 in 10.0 mi West 4.6 mph - N/A   Overcast
8:17 AM 23.0 °F 17.0 °F 21.2 °F 93% 30.15 in 7.0 mi West 4.6 mph - N/A Snow Light Snow
8:36 AM 23.0 °F 15.8 °F 21.2 °F 93% 30.15 in 10.0 mi West 5.8 mph - N/A   Overcast
9:00 AM 23.0 °F 14.7 °F 21.2 °F 93% 30.16 in 4.0 mi WNW 6.9 mph - N/A Snow Light Snow
9:20 AM 23.0 °F 14.7 °F 21.2 °F 93% 30.17 in 4.0 mi West 6.9 mph - N/A Snow Light Snow
9:40 AM 23.0 °F 14.7 °F 21.2 °F 93% 30.18 in 5.0 mi West 6.9 mph - N/A Snow Light Snow
9:57 AM 23.0 °F 17.0 °F 21.2 °F 93% 30.19 in 7.0 mi West 4.6 mph - N/A Snow Light Snow
10:16 AM 23.0 °F 15.8 °F 21.2 °F 93% 30.19 in 10.0 mi West 5.8 mph - N/A Snow Light Snow
10:37 AM 23.0 °F 15.8 °F 21.2 °F 93% 30.20 in 10.0 mi West 5.8 mph - N/A   Overcast
10:56 AM 23.0 °F 15.8 °F 21.2 °F 93% 30.21 in 10.0 mi West 5.8 mph - N/A   Overcast
10:59 AM 23.9 °F 15.8 °F 21.0 °F 89% 30.21 in 10.0 mi West 6.9 mph - N/A   Overcast
11:14 AM 24.3 °F 16.3 °F 21.0 °F 87% 30.21 in 10.0 mi West 6.9 mph - N/A   Overcast
11:34 AM 24.8 °F 17.9 °F 20.5 °F 84% 30.21 in 10.0 mi WNW 5.8 mph - N/A   Mostly Cloudy
11:54 AM 25.5 °F 18.7 °F 20.7 °F 82% 30.20 in 10.0 mi West 5.8 mph - N/A   Mostly Cloudy
12:14 PM 24.8 °F 19.1 °F 19.2 °F 79% 30.21 in 10.0 mi West 4.6 mph - N/A   Scattered Clouds
12:34 PM 25.3 °F 17.6 °F 20.3 °F 81% 30.21 in 10.0 mi WNW 6.9 mph - N/A   Mostly Cloudy
12:54 PM 25.2 °F 19.5 °F 20.5 °F 82% 30.20 in 10.0 mi WNW 4.6 mph - N/A   Overcast
1:14 PM 25.5 °F 21.3 °F 21.4 °F 84% 30.20 in 10.0 mi WNW 3.5 mph - N/A Snow Light Snow
1:34 PM 25.7 °F - 22.1 °F 86% 30.20 in 3.0 mi Calm Calm - N/A Snow Light Snow
1:54 PM 25.7 °F 20.1 °F 22.5 °F 88% 30.20 in 2.5 mi WSW 4.6 mph - N/A Snow Light Snow
2:14 PM 25.7 °F 20.1 °F 23.0 °F 89% 30.20 in 2.5 mi WSW 4.6 mph - N/A Snow Light Snow
2:34 PM 25.3 °F 21.1 °F 23.4 °F 92% 30.20 in 2.5 mi WSW 3.5 mph - N/A Snow Light Snow
2:54 PM 25.2 °F 19.5 °F 23.4 °F 93% 30.20 in 3.0 mi WSW 4.6 mph - N/A Snow Light Snow
3:14 PM 25.2 °F 19.5 °F 23.0 °F 91% 30.20 in 3.0 mi SW 4.6 mph - N/A Snow Light Snow
3:34 PM 25.2 °F - 23.2 °F 92% 30.21 in 7.0 mi Calm Calm - N/A Snow Light Snow
3:54 PM 25.3 °F 19.7 °F 23.2 °F 91% 30.21 in 10.0 mi WSW 4.6 mph - N/A Snow Light Snow
4:14 PM 25.5 °F 19.9 °F 23.9 °F 94% 30.22 in 1.5 mi WSW 4.6 mph - N/A Snow Light Snow
4:34 PM 25.5 °F 13.8 °F 24.1 °F 94% 30.22 in 1.0 mi WSW 13.8 mph 17.3 mph N/A Snow Light Snow
4:54 PM 25.2 °F 13.9 °F 22.8 °F 91% 30.23 in 2.5 mi WSW 12.7 mph 21.9 mph N/A Snow Light Snow
5:14 PM 24.6 °F 12.2 °F 21.4 °F 87% 30.24 in 7.0 mi WSW 15.0 mph - N/A Snow Light Snow
5:34 PM 23.9 °F 12.9 °F 21.2 °F 89% 30.24 in 10.0 mi WSW 11.5 mph - N/A Snow Light Snow
5:54 PM 23.7 °F 13.3 °F 21.4 °F 91% 30.24 in 10.0 mi WSW 10.4 mph - N/A Snow Light Snow
6:14 PM 22.8 °F 9.9 °F 19.0 °F 85% 30.24 in 10.0 mi WSW 15.0 mph - N/A   Overcast
6:34 PM 22.5 °F 10.5 °F 19.4 °F 88% 30.24 in 10.0 mi WSW 12.7 mph - N/A   Overcast
6:54 PM 21.6 °F 8.2 °F 18.3 °F 87% 30.24 in 10.0 mi WSW 15.0 mph 20.7 mph N/A   Mostly Cloudy
7:14 PM 21.2 °F 9.5 °F 18.7 °F 90% 30.25 in 5.0 mi SW 11.5 mph - N/A Snow Light Snow
7:34 PM 20.8 °F 8.4 °F 18.3 °F 90% 30.26 in 5.0 mi WSW 12.7 mph 18.4 mph N/A Snow Light Snow
7:54 PM 19.6 °F 7.4 °F 17.2 °F 91% 30.27 in 10.0 mi WSW 11.5 mph - N/A   Mostly Cloudy
8:14 PM 19.4 °F 9.5 °F 17.1 °F 91% 30.27 in 10.0 mi SW 8.1 mph - N/A Snow Light Snow
8:34 PM 20.3 °F 10.6 °F 18.1 °F 91% 30.27 in 7.0 mi SW 8.1 mph - N/A Snow Light Snow
8:54 PM 19.6 °F 7.4 °F 16.7 °F 89% 30.27 in 10.0 mi SW 11.5 mph - N/A   Overcast
9:14 PM 18.3 °F 6.6 °F 15.3 °F 88% 30.27 in 10.0 mi WSW 10.4 mph - N/A   Overcast
9:34 PM 18.3 °F 7.3 °F 15.1 °F 87% 30.27 in 10.0 mi WSW 9.2 mph - N/A   Overcast
9:54 PM 17.8 °F 8.5 °F 14.7 °F 88% 30.27 in 10.0 mi SW 6.9 mph - N/A   Overcast
10:14 PM 18.1 °F 7.1 °F 15.4 °F 89% 30.27 in 10.0 mi WSW 9.2 mph - N/A   Overcast
10:34 PM 18.1 °F 7.1 °F 15.3 °F 88% 30.27 in 10.0 mi WSW 9.2 mph - N/A   Overcast
10:54 PM 18.0 °F 4.2 °F 14.9 °F 88% 30.27 in 10.0 mi WSW 13.8 mph - N/A Snow Light Snow
11:14 PM 17.8 °F 5.2 °F 15.1 °F 89% 30.27 in 2.5 mi SW 11.5 mph - N/A Snow Light Snow
11:34 PM 17.6 °F 4.3 °F 15.1 °F 90% 30.27 in 1.5 mi WSW 12.7 mph - N/A Snow Light Snow
11:54 PM 17.4 °F 2.4 °F 14.9 °F 90% 30.27 in 1.5 mi WSW 16.1 mph 21.9 mph N/A Snow Light Snow